Regional Weather Roundup
Issued by NWS

Home | Current Version | Previous Version | Graphics & Text | Print | Product List | Glossary On
Versions: 1 2 3 4 5 6 7 8 9 10 11 12 13 14 15 16 17 18 19 20 21 22 23 24 25 26 27 28 29 30 31 32 33 34 35 36 37 38 39 40 41 42 43 44 45 46 47 48 49 50
000
ASUS43 KLSX 180707
RWRMO

WEATHER SUMMARY FOR MISSOURI
NATIONAL WEATHER SERVICE SPRINGFIELD MO
200 AM CDT WED OCT 18 2017

NOTE: "FAIR" INDICATES FEW OR NO CLOUDS BELOW 12,000 FEET WITH NO
       SIGNIFICANT WEATHER AND/OR OBSTRUCTIONS TO VISIBILITY.
       CURRENT SKY AND/OR WEATHER CONDITIONS ARE NOT AVAILABLE FOR
       CHILLICOTHE AND FARMINGTON.

MOZ001>031-035>038-043-044-053-054-180800-
...NORTHERN AND WESTERN MISSOURI...

CITY           SKY/WX    TMP DP  RH WIND       PRES   REMARKS
KANSAS CTY INT CLEAR     54  46  74 S12       30.08S
KANSAS C DTWN  CLEAR     57  46  66 S7        30.08F
LEE`S SUMMIT   CLEAR     55  47  74 S12       30.10F
ST JOSEPH      CLEAR     55  47  74 S8        30.05F
CHILLICOTHE      N/A     49  47  93 CALM      30.10S
KIRKSVILLE     CLEAR     52  46  80 S8        30.12S

$$
MOZ066>068-077>081-088>096-101>105-180800-
...SOUTHWEST MISSOURI...

CITY           SKY/WX    TMP DP  RH WIND       PRES   REMARKS
SPRINGFIELD    CLEAR     49  40  71 S9        30.16S
JOPLIN         CLEAR     50  44  80 S8        30.14F
BRANSON        CLEAR     46  39  76 CALM      30.19S

$$
MOZ032>034-039>042-045>050-055>058-069>072-180800-
...CENTRAL MISSOURI...

CITY           SKY/WX    TMP DP  RH WIND       PRES   REMARKS
COLUMBIA       CLEAR     49  41  74 S9        30.15S
JEFFERSON CITY CLEAR     48  41  76 SE6       30.16S
ROLLA          CLEAR     52  40  63 S14       30.18S
SEDALIA        CLEAR     54  43  66 S9        30.14S
WHITEMAN AFB   CLEAR     47  42  81 S10       30.08S
WARRENSBURG    CLEAR     50  45  81 S7        30.11F
OSAGE BEACH    CLEAR     49  40  71 S6        30.17S

$$
MOZ051-052-059>065-180800-
...EAST CENTRAL MISSOURI...

CITY           SKY/WX    TMP DP  RH WIND       PRES   REMARKS
ST LOUIS INTL  NOT AVBL
SPIRIT OF STL  CLEAR     45  41  86 CALM      30.18S
ST CHARLES     CLEAR     42  40  92 E6        30.19R

$$
MOZ072>076-082>087-097>100-106>115-180800-
...SOUTH CENTRAL AND SOUTHEAST MISSOURI...

CITY           SKY/WX    TMP DP  RH WIND       PRES   REMARKS
CAPE GIRARDEAU CLEAR     40  38  93 E3        30.23S
FARMINGTON     CLEAR     42  39  89 CALM      30.21F
POPLAR BLUFF   CLEAR     41  40  96 CALM      30.22S
WEST PLAINS    CLEAR     47  39  74 S5        30.21F

$$



USA.gov is the U.S. government's official web portal to all federal, state and local government web resources and services.